TimeEDT,TemperatureF,Dew PointF,Humidity,Sea Level PressureIn,VisibilityMPH,Wind Direction,Wind SpeedMPH,Gust SpeedMPH,PrecipitationIn,Events,Conditions,WindDirDegrees,DateUTC
12:15 AM,68.9,68.4,98,30.08,7.0,Calm,Calm,-,N/A,,Mostly Cloudy,0,2013-07-21 04:15:00
12:35 AM,68.9,68.4,98,30.08,7.0,Calm,Calm,-,N/A,,Overcast,0,2013-07-21 04:35:00
12:55 AM,68.7,68.0,98,30.08,10.0,NNE,3.5,-,N/A,,Mostly Cloudy,30,2013-07-21 04:55:00
1:15 AM,68.9,68.0,97,30.07,10.0,NE,3.5,-,N/A,,Scattered Clouds,40,2013-07-21 05:15:00
1:35 AM,68.0,67.3,98,30.07,10.0,Calm,Calm,-,N/A,,Clear,0,2013-07-21 05:35:00
1:55 AM,67.3,67.1,99,30.07,5.0,Calm,Calm,-,N/A,,Scattered Clouds,0,2013-07-21 05:55:00
2:15 AM,67.3,66.9,99,30.07,5.0,Calm,Calm,-,N/A,,Mostly Cloudy,0,2013-07-21 06:15:00
2:35 AM,66.7,66.2,98,30.06,7.0,Calm,Calm,-,N/A,,Mostly Cloudy,0,2013-07-21 06:35:00
2:55 AM,67.3,66.7,98,30.06,10.0,Calm,Calm,-,N/A,,Overcast,0,2013-07-21 06:55:00
3:15 AM,67.3,66.4,97,30.06,10.0,Calm,Calm,-,N/A,,Overcast,0,2013-07-21 07:15:00
3:35 AM,68.0,67.3,98,30.06,2.0,Calm,Calm,-,N/A,,Overcast,0,2013-07-21 07:35:00
3:55 AM,68.0,67.5,98,30.06,4.0,Calm,Calm,-,N/A,,Overcast,0,2013-07-21 07:55:00
4:15 AM,68.0,67.5,98,30.05,5.0,Calm,Calm,-,N/A,,Overcast,0,2013-07-21 08:15:00
4:35 AM,67.8,67.3,98,30.05,7.0,Calm,Calm,-,N/A,,Overcast,0,2013-07-21 08:35:00
4:55 AM,67.3,66.9,99,30.05,7.0,Calm,Calm,-,N/A,,Mostly Cloudy,0,2013-07-21 08:55:00
5:15 AM,67.6,67.5,99,30.04,3.0,Calm,Calm,-,N/A,,Overcast,0,2013-07-21 09:15:00
5:35 AM,67.5,67.1,99,30.04,5.0,Calm,Calm,-,N/A,,Overcast,0,2013-07-21 09:35:00
5:55 AM,67.5,67.3,99,30.05,5.0,Calm,Calm,-,N/A,,Overcast,0,2013-07-21 09:55:00
6:15 AM,67.5,67.3,99,30.06,2.5,Calm,Calm,-,N/A,,Overcast,0,2013-07-21 10:15:00
6:35 AM,67.3,67.1,99,30.07,4.0,Calm,Calm,-,N/A,,Overcast,0,2013-07-21 10:35:00
6:55 AM,67.3,67.1,99,30.07,2.5,Calm,Calm,-,N/A,,Overcast,0,2013-07-21 10:55:00
7:15 AM,67.8,67.1,98,30.07,7.0,Calm,Calm,-,N/A,,Overcast,0,2013-07-21 11:15:00
7:35 AM,67.8,67.3,98,30.08,4.0,Calm,Calm,-,N/A,,Overcast,0,2013-07-21 11:35:00
7:55 AM,68.0,67.5,98,30.08,-9999.0,Calm,Calm,-,N/A,,Overcast,0,2013-07-21 11:55:00
8:35 AM,69.1,68.0,96,30.09,-9999.0,Calm,Calm,-,N/A,,Unknown,0,2013-07-21 12:35:00
8:55 AM,69.4,68.0,95,30.09,10.0,Calm,Calm,-,N/A,,Overcast,0,2013-07-21 12:55:00
9:15 AM,70.9,68.5,92,30.10,10.0,Calm,Calm,-,N/A,,Overcast,0,2013-07-21 13:15:00
9:35 AM,71.8,68.5,89,30.10,10.0,Calm,Calm,-,N/A,,Overcast,0,2013-07-21 13:35:00
9:55 AM,72.3,68.9,89,30.09,10.0,Calm,Calm,-,N/A,,Overcast,0,2013-07-21 13:55:00
10:15 AM,72.3,68.7,88,30.10,10.0,Calm,Calm,-,N/A,,Overcast,0,2013-07-21 14:15:00
10:35 AM,74.5,69.6,85,30.09,10.0,Calm,Calm,-,N/A,,Mostly Cloudy,0,2013-07-21 14:35:00
10:55 AM,76.6,70.5,81,30.09,10.0,WNW,3.5,-,N/A,,Clear,290,2013-07-21 14:55:00
11:15 AM,77.7,69.6,76,30.09,-9999.0,Calm,Calm,-,N/A,,Scattered Clouds,0,2013-07-21 15:15:00
11:35 AM,78.6,70.3,76,30.09,10.0,Calm,Calm,-,N/A,,Scattered Clouds,0,2013-07-21 15:35:00
11:55 AM,79.0,70.0,74,30.08,-9999.0,Calm,Calm,-,N/A,,Scattered Clouds,0,2013-07-21 15:55:00
12:15 PM,80.8,70.7,71,30.08,10.0,West,5.8,-,N/A,,Mostly Cloudy,260,2013-07-21 16:15:00
12:35 PM,83.3,70.7,66,30.07,10.0,Calm,Calm,-,N/A,,Mostly Cloudy,0,2013-07-21 16:35:00
12:55 PM,81.5,69.6,67,30.06,-9999.0,Calm,Calm,-,N/A,,Mostly Cloudy,0,2013-07-21 16:55:00
1:15 PM,82.8,69.6,64,30.05,10.0,West,3.5,-,N/A,,Scattered Clouds,270,2013-07-21 17:15:00
2:15 PM,84.2,70.0,62,30.03,-9999.0,SSW,4.6,-,N/A,,Scattered Clouds,200,2013-07-21 18:15:00
2:35 PM,84.4,70.5,63,30.02,-9999.0,South,5.8,-,N/A,,Scattered Clouds,190,2013-07-21 18:35:00
2:55 PM,84.9,70.3,61,30.01,-9999.0,SW,8.1,-,N/A,,Scattered Clouds,230,2013-07-21 18:55:00
3:15 PM,82.9,69.6,64,30.00,10.0,WSW,8.1,-,N/A,,Scattered Clouds,240,2013-07-21 19:15:00
3:35 PM,79.7,72.1,78,30.01,10.0,WSW,5.8,-,N/A,Rain,Light Rain,250,2013-07-21 19:35:00
3:55 PM,82.4,70.5,67,30.01,10.0,West,5.8,-,N/A,,Scattered Clouds,280,2013-07-21 19:55:00
4:15 PM,81.9,70.2,68,30.01,-9999.0,North,9.2,-,N/A,,Scattered Clouds,10,2013-07-21 20:15:00
4:35 PM,78.4,69.3,73,30.01,10.0,NNE,8.1,-,N/A,,Mostly Cloudy,20,2013-07-21 20:35:00
4:55 PM,76.8,69.1,77,30.01,-9999.0,NE,5.8,-,N/A,,Overcast,40,2013-07-21 20:55:00
5:15 PM,79.9,69.1,69,30.00,-9999.0,SSE,5.8,-,N/A,,Scattered Clouds,150,2013-07-21 21:15:00
5:35 PM,77.7,68.2,72,30.01,10.0,East,6.9,-,N/A,,Scattered Clouds,90,2013-07-21 21:35:00
5:55 PM,76.1,67.8,75,30.01,10.0,ENE,5.8,-,N/A,,Scattered Clouds,60,2013-07-21 21:55:00
6:15 PM,75.2,68.7,80,30.01,-9999.0,ESE,3.5,-,N/A,,Scattered Clouds,120,2013-07-21 22:15:00
6:35 PM,75.7,67.5,75,30.01,10.0,Calm,Calm,-,N/A,,Scattered Clouds,0,2013-07-21 22:35:00
6:55 PM,75.4,68.4,79,30.01,-9999.0,ENE,3.5,-,N/A,,Mostly Cloudy,60,2013-07-21 22:55:00
7:15 PM,75.7,66.6,73,30.01,10.0,Calm,Calm,-,N/A,,Scattered Clouds,0,2013-07-21 23:15:00
7:35 PM,75.4,68.9,80,30.01,10.0,Calm,Calm,-,N/A,,Clear,0,2013-07-21 23:35:00
7:55 PM,74.7,69.8,85,30.01,-9999.0,Calm,Calm,-,N/A,,Clear,0,2013-07-21 23:55:00
8:15 PM,73.0,70.2,91,30.01,-9999.0,Calm,Calm,-,N/A,,Unknown,0,2013-07-22 00:15:00
8:35 PM,72.5,68.7,88,30.01,10.0,Calm,Calm,-,N/A,,Clear,0,2013-07-22 00:35:00
8:55 PM,71.6,70.3,96,30.03,10.0,Calm,Calm,-,N/A,,Clear,0,2013-07-22 00:55:00
9:15 PM,70.9,69.6,96,30.04,10.0,Calm,Calm,-,N/A,,Clear,0,2013-07-22 01:15:00
9:35 PM,71.1,69.4,95,30.06,10.0,Calm,Calm,-,N/A,,Clear,0,2013-07-22 01:35:00
9:55 PM,70.7,69.8,97,30.06,10.0,Calm,Calm,-,N/A,,Clear,0,2013-07-22 01:55:00
10:15 PM,70.9,68.9,93,30.06,10.0,Calm,Calm,-,N/A,,Scattered Clouds,0,2013-07-22 02:15:00
10:35 PM,71.1,68.2,91,30.06,10.0,Calm,Calm,-,N/A,,Mostly Cloudy,0,2013-07-22 02:35:00
10:55 PM,71.1,68.7,92,30.07,10.0,Calm,Calm,-,N/A,,Light Drizzle,0,2013-07-22 02:55:00
11:15 PM,70.7,68.9,94,30.07,10.0,Calm,Calm,-,N/A,,Overcast,0,2013-07-22 03:15:00
11:35 PM,70.2,68.2,93,30.07,10.0,NE,3.5,-,N/A,,Mostly Cloudy,40,2013-07-22 03:35:00
11:55 PM,70.2,67.8,92,30.07,10.0,Calm,Calm,-,N/A,,Mostly Cloudy,0,2013-07-22 03:55:00